Location: Grossmotten
(48.5500°N, 15.3833°E)
Time: 02:38:34
(UTC+00:00)

H-2A R/B - Pass Details

Date: 15 November 2019
Orbit: 530 x 652 km, 98.3° (Epoch: 07 December)

Event Time Altitude Azimuth Distance (km) Brightness Sun altitude
Rises 03:13:47 0° 15° (NNE) 2,980 6.3 -28.3°
Reaches altitude 10° 03:16:01 10° 17° (NNE) 2,069 5.5 -28.0°
Enters shadow 03:19:29 51° 34° (NE) 829 3.3 -27.4°
